User: anonymous   Login
Location: Unspecified
(0.0000°N, 0.0000°E)
Time: 13:32:01
(UTC+00:00)
Language:

FO-29 - Orbit

View from above orbital plane
View from above orbital plane
View from above satellite
View from above satellite

Ground track
Ground track

The orbit data is extracted from the following two-line orbital elements,

1 24278U 96046B   18112.84425504 -.00000045 +00000-0 -75719-5 0  9998
2 24278 098.5222 319.2130 0349324 254.4844 101.7477 13.53083039070502
Epoch (UTC): 22 April 2018 20:15:43
Eccentricity: 0.0349324
inclination: 98.5222°
perigee height: 801 km
apogee height: 1321 km
right ascension of ascending node: 319.2130°
argument of perigee: 254.4844°
revolutions per day: 13.53083039
mean anomaly at epoch: 101.7477°
orbit number at epoch: 7050

The dashed part of the orbit path shows where the satellite is in the earth's shadow,  

DLR